星链-2633 (STARLINK-2633 )

导读 | 星芒AI

STARLINK-2633 是 SpaceX Starlink 卫星互联网项目中的一颗低轨卫星,属于第26组发射批次。该卫星由 SpaceX 制造并部署,旨在为全球用户提供高速互联网服务。它运行在约 550 公里的近地轨道上,采用先进的通信技术,支持宽带连接。Starlink 项目通过大规模部署此类卫星,构建覆盖全球的通信网络,尤其服务于偏远和网络基础设施薄弱的地区。STARLINK-2633 的运行有助于提升 Starlink 网络的稳定性和覆盖范围。

基本信息
目录编号:
48435
目录名称:
STARLINK-2633
国际标识:
2021-040H
轨道中心:
EARTH
卫星名称:
星链-2633
卫星全名:
星链-2633 (STARLINK-2633 )
卫星状态:
在轨 (已飞行1684 天)
发射日期:
2021-05-09 UTC
国别 :
美国 (US)
星等 :
--
轨道信息
数据来源 国际轨道数据 AOE轨道数据
星历时间 2025-12-18T05:32:13+0800
14小时前
查看轨道信息
2025-12-16T12:00:00+0800
2天前
查看轨道信息
半长轴 6925.345km 6925.376km
偏心率 0.0001405 0.0001981
轨道倾角 53.054° 53.053°
近地点辐角 94.738° 55.241°
升交点赤经 173.808° 181.579°
平近点角 265.377° 274.000°
近地点 546.236km 545.869km
远地点 548.184km 548.613km
周期 95.592分钟 95.593分钟
每日圈数 15.064012 15.063911
详细信息
固有亮度:
5
最大亮度:
2.5
卫星平台:
Starlink V1.0
覆盖范围:
全球
运营商:
太空探索技术公司
运营商所在国:
美国
制造商(研发单位):
太空探索技术公司
制造商所在国:
美国
使用方式:
暂无
卫星简介
星链(Starlink)计划是由太空探索技术公司(SpaceX)提出的一个巨型低轨卫星互联网星座项目,计划在2019年至2024年间在太空搭建由约1.2万颗卫星组成的“星链”网络,其中1584颗将部署在地球上空550千米处的近地轨道,并从2020年开始工作。该卫星仍在工作。
2D轨道图
3D轨道图
轨道高度分析图
轨道倾角分析图
轨道综合分析图
查看轨道综合分析图